This is the latest recevied weather packets stored in our database for station/object WE8L. If no packets are shown the sender has not sent any weather packets the latest 10 day(s).
| Time | Temp. | Humidity | Pressure | Rain* | Wind** | Luminosity | Snow |
|---|---|---|---|---|---|---|---|
| 1777665423 | 11.67° C | 59% | 1017.6 hPa | 0 mm | - | 102 W/m² | - |
| 1777665119 | 11.67° C | 58% | 1017.7 hPa | 0 mm | - | 92 W/m² | - |
| 1777664815 | 12.22° C | 57% | 1017.4 hPa | 0 mm | - | 89 W/m² | - |
| 1777664510 | 12.78° C | 58% | 1017.5 hPa | 0 mm | - | 91 W/m² | - |
| 1777664208 | 12.78° C | 57% | 1017.6 hPa | 0 mm | - | 148 W/m² | - |
| 1777663907 | 12.78° C | 60% | 1017.4 hPa | 0 mm | - | 125 W/m² | - |
| 1777663603 | 11.11° C | 62% | 1017.6 hPa | 0 mm | - | 311 W/m² | - |
| 1777663301 | 11.67° C | 61% | 1017.7 hPa | 0 mm | - | 98 W/m² | - |
| 1777662998 | 11.67° C | 61% | 1017.6 hPa | 0 mm | - | 65 W/m² | - |
| 1777662695 | 12.22° C | 61% | 1017.6 hPa | 0 mm | - | 109 W/m² | - |
| 1777662391 | 12.22° C | 62% | 1017.7 hPa | 0 mm | - | 94 W/m² | - |
| 1777662086 | 11.67° C | 64% | 1017.7 hPa | 0 mm | - | 586 W/m² | - |
| 1777661783 | 11.67° C | 63% | 1017.5 hPa | 0 mm | - | 497 W/m² | - |
| 1777661478 | 12.22° C | 61% | 1017.5 hPa | 0 mm | - | 107 W/m² | - |
| 1777661175 | 12.22° C | 60% | 1017.5 hPa | 0 mm | - | 133 W/m² | - |
| 1777660869 | 12.22° C | 61% | 1017.3 hPa | 0 mm | - | 145 W/m² | - |
| 1777660567 | 11.67° C | 63% | 1017.3 hPa | 0 mm | - | 806 W/m² | - |
| 1777660263 | 11.67° C | 65% | 1017.3 hPa | 0 mm | - | 165 W/m² | - |
| 1777659960 | 11.11° C | 66% | 1017.3 hPa | 0 mm | - | 64 W/m² | - |
| 1777659657 | 11.67° C | 63% | 1017.1 hPa | 0 mm | - | 92 W/m² | - |
| 1777659354 | 11.67° C | 63% | 1017.3 hPa | 0 mm | - | 305 W/m² | - |
| 1777659050 | 11.67° C | 63% | 1017.3 hPa | 0 mm | - | 155 W/m² | - |
| 1777658748 | 11.11° C | 63% | 1017.1 hPa | 0 mm | - | 88 W/m² | - |
| 1777658444 | 12.22° C | 65% | 1017.1 hPa | 0 mm | - | 115 W/m² | - |
| 1777658141 | 11.67° C | 63% | 1017 hPa | 0 mm | - | 131 W/m² | - |
* Rain latest hour (hover to see other rain measurements)
** Current wind speed in m/s (hover to see current wind gust speed)